Time,TemperatureF,DewpointF,PressureIn,WindDirection,WindDirectionDegrees,WindSpeedMPH,WindSpeedGustMPH,Humidity,HourlyPrecipIn,Conditions,Clouds,dailyrainin,SoftwareType,DateUTC
2013-01-16 00:01:00,37.2,33.4,30.25,North,355,4.0,6.0,86,0.01,,,0.15,meteohub,2013-01-16 05:01:00,
2013-01-16 00:02:00,37.2,33.4,30.25,North,355,6.0,6.0,86,0.01,,,0.15,meteohub,2013-01-16 05:02:00,
2013-01-16 00:04:00,37.0,33.3,30.25,North,355,3.0,6.0,86,0.01,,,0.15,meteohub,2013-01-16 05:04:00,
2013-01-16 00:05:00,37.0,33.3,30.25,North,355,4.0,6.0,86,0.01,,,0.15,meteohub,2013-01-16 05:05:00,
2013-01-16 00:10:00,37.0,33.6,30.25,North,355,4.0,6.0,87,0.02,,,0.01,meteohub,2013-01-16 05:10:00,
2013-01-16 00:15:00,37.0,33.3,30.25,North,355,5.0,7.0,86,0.02,,,0.01,meteohub,2013-01-16 05:15:00,
2013-01-16 00:20:00,36.9,33.1,30.25,North,355,6.0,7.0,86,0.02,,,0.01,meteohub,2013-01-16 05:20:00,
2013-01-16 00:25:00,36.9,33.1,30.25,North,355,6.0,7.0,86,0.02,,,0.01,meteohub,2013-01-16 05:25:00,
2013-01-16 00:30:00,36.9,33.4,30.24,North,355,7.0,7.0,87,0.02,,,0.01,meteohub,2013-01-16 05:30:00,
2013-01-16 00:35:00,36.9,33.4,30.24,North,355,5.0,7.0,87,0.02,,,0.01,meteohub,2013-01-16 05:35:00,
2013-01-16 00:40:00,36.9,33.4,30.25,North,355,7.0,9.0,87,0.01,,,0.01,meteohub,2013-01-16 05:40:00,
2013-01-16 00:45:00,36.9,33.6,30.25,North,355,5.0,9.0,88,0.01,,,0.01,meteohub,2013-01-16 05:45:00,
2013-01-16 00:50:00,36.9,33.6,30.25,North,355,7.0,9.0,88,0.01,,,0.01,meteohub,2013-01-16 05:50:00,
2013-01-16 00:55:00,36.7,33.4,30.25,North,355,8.0,9.0,88,0.01,,,0.01,meteohub,2013-01-16 05:55:00,
2013-01-16 01:00:00,36.7,33.4,30.25,North,355,7.0,12.0,88,0.02,,,0.01,meteohub,2013-01-16 06:00:00,
2013-01-16 01:05:00,36.7,33.4,30.24,North,355,9.0,12.0,88,0.02,,,0.01,meteohub,2013-01-16 06:05:00,
2013-01-16 01:10:00,36.7,33.8,30.23,North,0,9.0,12.0,89,0.02,,,0.02,meteohub,2013-01-16 06:10:00,
2013-01-16 01:15:00,36.7,33.8,30.23,North,10,10.0,13.0,89,0.02,,,0.02,meteohub,2013-01-16 06:15:00,
2013-01-16 01:20:00,36.5,33.6,30.23,North,5,9.0,13.0,89,0.02,,,0.02,meteohub,2013-01-16 06:20:00,
2013-01-16 01:25:00,36.3,33.4,30.23,North,5,11.0,13.0,89,0.02,,,0.03,meteohub,2013-01-16 06:25:00,
2013-01-16 01:30:00,36.3,33.6,30.23,North,5,10.0,13.0,90,0.02,,,0.03,meteohub,2013-01-16 06:30:00,
2013-01-16 01:35:00,36.1,33.4,30.24,North,5,6.0,13.0,90,0.02,,,0.03,meteohub,2013-01-16 06:35:00,
2013-01-16 01:40:00,36.0,33.3,30.23,North,5,10.0,13.0,90,0.03,,,0.03,meteohub,2013-01-16 06:40:00,
2013-01-16 01:45:00,36.1,33.4,30.22,North,11,12.0,13.0,90,0.03,,,0.04,meteohub,2013-01-16 06:45:00,
2013-01-16 01:50:00,36.1,33.8,30.22,North,5,10.0,16.0,91,0.03,,,0.04,meteohub,2013-01-16 06:50:00,
2013-01-16 01:55:00,36.0,33.3,30.22,North,0,12.0,16.0,90,0.03,,,0.04,meteohub,2013-01-16 06:55:00,
2013-01-16 02:00:00,36.0,33.3,30.22,North,9,6.0,16.0,90,0.03,,,0.04,meteohub,2013-01-16 07:00:00,
2013-01-16 02:05:00,36.1,33.4,30.20,NNE,17,14.0,16.0,90,0.03,,,0.05,meteohub,2013-01-16 07:05:00,
2013-01-16 02:10:00,36.1,33.8,30.19,North,11,8.0,16.0,91,0.03,,,0.05,meteohub,2013-01-16 07:10:00,
2013-01-16 02:15:00,36.0,33.6,30.19,NNE,12,11.0,16.0,91,0.03,,,0.05,meteohub,2013-01-16 07:15:00,
2013-01-16 02:20:00,36.0,33.6,30.21,North,9,5.0,18.0,91,0.02,,,0.05,meteohub,2013-01-16 07:20:00,
2013-01-16 02:25:00,36.0,33.6,30.20,North,9,13.0,18.0,91,0.02,,,0.05,meteohub,2013-01-16 07:25:00,
2013-01-16 02:30:00,36.0,33.6,30.19,North,5,12.0,15.0,91,0.03,,,0.06,meteohub,2013-01-16 07:30:00,
2013-01-16 02:35:00,36.0,33.6,30.18,NNE,17,13.0,15.0,91,0.03,,,0.06,meteohub,2013-01-16 07:35:00,
2013-01-16 02:40:00,36.0,33.8,30.19,North,11,12.0,16.0,92,0.03,,,0.06,meteohub,2013-01-16 07:40:00,
2013-01-16 02:45:00,36.0,33.8,30.19,North,11,8.0,16.0,92,0.03,,,0.06,meteohub,2013-01-16 07:45:00,
2013-01-16 02:50:00,36.0,33.8,30.19,North,11,9.0,15.0,92,0.03,,,0.07,meteohub,2013-01-16 07:50:00,
2013-01-16 02:55:00,36.0,33.8,30.18,NNE,15,8.0,15.0,92,0.03,,,0.07,meteohub,2013-01-16 07:55:00,
2013-01-16 03:00:00,36.0,33.8,30.19,North,5,8.0,14.0,92,0.02,,,0.07,meteohub,2013-01-16 08:00:00,
2013-01-16 03:05:00,35.8,33.6,30.19,North,5,7.0,14.0,92,0.02,,,0.07,meteohub,2013-01-16 08:05:00,
2013-01-16 03:10:00,35.6,33.4,30.19,North,0,9.0,13.0,92,0.03,,,0.07,meteohub,2013-01-16 08:10:00,
2013-01-16 03:16:00,35.6,33.8,30.19,North,0,7.0,13.0,93,0.03,,,0.07,meteohub,2013-01-16 08:16:00,
2013-01-16 03:21:00,35.6,33.8,30.18,North,355,12.0,13.0,93,0.03,,,0.08,meteohub,2013-01-16 08:21:00,
2013-01-16 03:25:00,35.8,34.0,30.18,North,355,10.0,13.0,93,0.03,,,0.08,meteohub,2013-01-16 08:25:00,
2013-01-16 03:31:00,35.8,34.0,30.17,North,355,9.0,14.0,93,0.03,,,0.09,meteohub,2013-01-16 08:31:00,
2013-01-16 03:35:00,35.8,34.0,30.17,North,355,9.0,14.0,93,0.03,,,0.09,meteohub,2013-01-16 08:35:00,
2013-01-16 03:40:00,35.8,34.2,30.17,North,0,12.0,15.0,94,0.03,,,0.10,meteohub,2013-01-16 08:40:00,
2013-01-16 03:45:00,35.8,34.2,30.17,North,5,12.0,15.0,94,0.03,,,0.10,meteohub,2013-01-16 08:45:00,
2013-01-16 03:50:00,36.0,34.3,30.16,North,10,12.0,15.0,94,0.04,,,0.11,meteohub,2013-01-16 08:50:00,
2013-01-16 03:55:00,35.8,34.2,30.15,NNE,12,12.0,15.0,94,0.04,,,0.11,meteohub,2013-01-16 08:55:00,
2013-01-16 04:01:00,35.8,34.2,30.14,NNE,17,11.0,16.0,94,0.06,,,0.13,meteohub,2013-01-16 09:01:00,
2013-01-16 04:06:00,36.0,34.3,30.14,North,9,12.0,16.0,94,0.06,,,0.13,meteohub,2013-01-16 09:06:00,
2013-01-16 04:11:00,36.0,34.3,30.14,NNE,15,13.0,16.0,94,0.06,,,0.14,meteohub,2013-01-16 09:11:00,
2013-01-16 04:16:00,36.1,34.5,30.13,North,11,12.0,16.0,94,0.06,,,0.14,meteohub,2013-01-16 09:16:00,
2013-01-16 04:21:00,36.0,34.3,30.12,NNE,20,12.0,18.0,94,0.07,,,0.15,meteohub,2013-01-16 09:21:00,
2013-01-16 04:26:00,36.1,34.5,30.12,NNE,22,14.0,18.0,94,0.07,,,0.15,meteohub,2013-01-16 09:26:00,
2013-01-16 04:31:00,36.1,34.9,30.12,NNE,16,14.0,18.0,95,0.08,,,0.16,meteohub,2013-01-16 09:31:00,
2013-01-16 04:36:00,36.1,34.5,30.11,NNE,19,15.0,18.0,94,0.08,,,0.16,meteohub,2013-01-16 09:36:00,
2013-01-16 04:41:00,36.3,35.1,30.12,NNE,17,10.0,19.0,95,0.07,,,0.18,meteohub,2013-01-16 09:41:00,
2013-01-16 04:46:00,36.3,35.1,30.12,North,5,12.0,19.0,95,0.07,,,0.18,meteohub,2013-01-16 09:46:00,
2013-01-16 04:51:00,36.5,35.2,30.11,NNE,32,10.0,19.0,95,0.09,,,0.20,meteohub,2013-01-16 09:51:00,
2013-01-16 04:56:00,36.7,35.4,30.11,NNE,17,12.0,19.0,95,0.09,,,0.20,meteohub,2013-01-16 09:56:00,
2013-01-16 05:01:00,36.7,35.4,30.11,North,355,13.0,19.0,95,0.09,,,0.20,meteohub,2013-01-16 10:01:00,
2013-01-16 05:06:00,36.5,35.2,30.12,North,350,12.0,19.0,95,0.09,,,0.23,meteohub,2013-01-16 10:06:00,
2013-01-16 05:11:00,36.3,35.1,30.12,North,5,6.0,19.0,95,0.10,,,0.23,meteohub,2013-01-16 10:11:00,
2013-01-16 05:16:00,36.7,35.4,30.12,NNE,16,9.0,16.0,95,0.10,,,0.23,meteohub,2013-01-16 10:16:00,
2013-01-16 05:21:00,36.7,35.4,30.11,NE,38,6.0,16.0,95,0.10,,,0.23,meteohub,2013-01-16 10:21:00,
2013-01-16 05:26:00,36.7,36.7,30.10,North,5,14.0,16.0,100,0.10,,,0.27,meteohub,2013-01-16 10:26:00,
2013-01-16 05:31:00,36.5,35.2,30.11,NNW,348,8.0,19.0,95,0.12,,,0.27,meteohub,2013-01-16 10:31:00,
2013-01-16 05:36:00,36.3,35.1,30.11,North,350,8.0,19.0,95,0.12,,,0.27,meteohub,2013-01-16 10:36:00,
2013-01-16 05:41:00,36.1,34.9,30.13,NNW,331,6.0,19.0,95,0.12,,,0.27,meteohub,2013-01-16 10:41:00,
2013-01-16 05:46:00,36.1,34.9,30.12,NNW,342,10.0,19.0,95,0.12,,,0.31,meteohub,2013-01-16 10:46:00,
2013-01-16 05:51:00,36.0,34.7,30.12,NNW,337,9.0,13.0,95,0.13,,,0.31,meteohub,2013-01-16 10:51:00,
2013-01-16 05:56:00,36.0,34.7,30.12,NNW,338,8.0,13.0,95,0.13,,,0.31,meteohub,2013-01-16 10:56:00,
2013-01-16 06:01:00,35.8,34.5,30.12,NNW,338,9.0,13.0,95,0.13,,,0.31,meteohub,2013-01-16 11:01:00,
2013-01-16 06:06:00,35.8,34.5,30.12,North,350,9.0,13.0,95,0.13,,,0.35,meteohub,2013-01-16 11:06:00,
2013-01-16 06:11:00,35.8,34.5,30.11,North,355,10.0,13.0,95,0.12,,,0.35,meteohub,2013-01-16 11:11:00,
2013-01-16 06:16:00,35.8,34.5,30.11,NNW,348,13.0,14.0,95,0.12,,,0.35,meteohub,2013-01-16 11:16:00,
2013-01-16 06:21:00,35.8,34.5,30.10,NNE,14,10.0,14.0,95,0.12,,,0.35,meteohub,2013-01-16 11:21:00,
2013-01-16 06:26:00,36.0,34.7,30.10,North,5,8.0,14.0,95,0.12,,,0.38,meteohub,2013-01-16 11:26:00,
2013-01-16 06:31:00,36.0,34.7,30.10,North,9,13.0,14.0,95,0.10,,,0.38,meteohub,2013-01-16 11:31:00,
2013-01-16 06:36:00,36.0,34.7,30.10,NNE,12,13.0,17.0,95,0.10,,,0.38,meteohub,2013-01-16 11:36:00,
2013-01-16 06:41:00,36.0,34.7,30.10,NNE,16,10.0,17.0,95,0.10,,,0.38,meteohub,2013-01-16 11:41:00,
2013-01-16 06:46:00,36.0,34.7,30.09,NNE,24,10.0,17.0,95,0.10,,,0.38,meteohub,2013-01-16 11:46:00,
2013-01-16 06:51:00,36.0,34.7,30.09,NNE,22,10.0,17.0,95,0.10,,,0.41,meteohub,2013-01-16 11:51:00,
2013-01-16 06:57:00,36.0,34.7,30.09,NNE,26,6.0,17.0,95,0.06,,,0.41,meteohub,2013-01-16 11:57:00,
2013-01-16 07:02:00,36.0,34.7,30.09,NNE,20,10.0,16.0,95,0.06,,,0.41,meteohub,2013-01-16 12:02:00,
2013-01-16 07:07:00,36.1,34.9,30.08,NNE,15,9.0,16.0,95,0.06,,,0.41,meteohub,2013-01-16 12:07:00,
2013-01-16 07:12:00,36.1,34.9,30.07,NE,36,7.0,16.0,95,0.06,,,0.41,meteohub,2013-01-16 12:12:00,
2013-01-16 07:17:00,36.1,34.9,30.07,NE,39,11.0,16.0,95,0.06,,,0.43,meteohub,2013-01-16 12:17:00,
2013-01-16 07:22:00,36.3,35.1,30.06,NNE,30,12.0,16.0,95,0.08,,,0.43,meteohub,2013-01-16 12:22:00,
2013-01-16 07:27:00,36.3,35.1,30.06,NNE,26,10.0,16.0,95,0.08,,,0.43,meteohub,2013-01-16 12:27:00,
2013-01-16 07:32:00,36.3,35.1,30.07,NNE,28,6.0,16.0,95,0.08,,,0.43,meteohub,2013-01-16 12:32:00,
2013-01-16 07:37:00,36.3,35.1,30.07,North,5,10.0,16.0,95,0.08,,,0.46,meteohub,2013-01-16 12:37:00,
2013-01-16 07:42:00,36.3,35.1,30.08,NNE,29,6.0,14.0,95,0.06,,,0.46,meteohub,2013-01-16 12:42:00,
2013-01-16 07:47:00,36.5,35.2,30.07,NNE,22,10.0,14.0,95,0.06,,,0.46,meteohub,2013-01-16 12:47:00,
2013-01-16 07:52:00,36.7,35.4,30.06,NNE,32,7.0,14.0,95,0.06,,,0.47,meteohub,2013-01-16 12:52:00,
2013-01-16 07:57:00,36.7,35.4,30.07,NNE,26,5.0,13.0,95,0.06,,,0.47,meteohub,2013-01-16 12:57:00,
2013-01-16 08:02:00,36.9,35.6,30.08,NE,34,10.0,13.0,95,0.06,,,0.47,meteohub,2013-01-16 13:02:00,
2013-01-16 08:07:00,36.9,35.6,30.08,NNE,15,10.0,13.0,95,0.06,,,0.47,meteohub,2013-01-16 13:07:00,
2013-01-16 08:12:00,36.9,35.6,30.08,NNE,15,10.0,13.0,95,0.06,,,0.48,meteohub,2013-01-16 13:12:00,
2013-01-16 08:17:00,36.9,35.6,30.07,North,5,8.0,12.0,95,0.04,,,0.48,meteohub,2013-01-16 13:17:00,
2013-01-16 08:22:00,36.9,35.6,30.06,NNE,19,7.0,12.0,95,0.04,,,0.48,meteohub,2013-01-16 13:22:00,
2013-01-16 08:27:00,36.9,35.6,30.07,NNE,19,7.0,12.0,95,0.04,,,0.48,meteohub,2013-01-16 13:27:00,
2013-01-16 08:32:00,36.9,35.6,30.06,NNE,20,4.0,12.0,95,0.04,,,0.49,meteohub,2013-01-16 13:32:00,
2013-01-16 08:37:00,37.0,35.8,30.06,NNE,22,9.0,12.0,95,0.03,,,0.49,meteohub,2013-01-16 13:37:00,
2013-01-16 08:42:00,37.0,35.8,30.05,NNE,19,9.0,12.0,95,0.03,,,0.49,meteohub,2013-01-16 13:42:00,
2013-01-16 08:47:00,37.0,36.0,30.04,NNE,17,7.0,12.0,96,0.03,,,0.49,meteohub,2013-01-16 13:47:00,
2013-01-16 08:52:00,37.2,36.1,30.04,NNE,22,4.0,12.0,96,0.03,,,0.49,meteohub,2013-01-16 13:52:00,
2013-01-16 08:57:00,37.2,36.1,30.03,NNE,24,6.0,13.0,96,0.02,,,0.49,meteohub,2013-01-16 13:57:00,
2013-01-16 09:02:00,37.6,36.5,30.03,NNE,30,3.0,13.0,96,0.02,,,0.49,meteohub,2013-01-16 14:02:00,
2013-01-16 09:07:00,37.6,36.5,30.02,NNE,17,5.0,13.0,96,0.02,,,0.49,meteohub,2013-01-16 14:07:00,
2013-01-16 09:12:00,37.8,36.7,30.02,NNE,28,6.0,13.0,96,0.02,,,0.49,meteohub,2013-01-16 14:12:00,
2013-01-16 09:17:00,37.8,36.7,30.01,NNE,26,7.0,11.0,96,0.01,,,0.49,meteohub,2013-01-16 14:17:00,
2013-01-16 09:22:00,37.9,36.9,30.01,NNE,18,7.0,11.0,96,0.01,,,0.49,meteohub,2013-01-16 14:22:00,
2013-01-16 09:27:00,37.9,36.9,30.01,NNE,16,8.0,11.0,96,0.01,,,0.49,meteohub,2013-01-16 14:27:00,
2013-01-16 09:32:00,37.9,36.9,30.00,North,355,9.0,11.0,96,0.01,,,0.50,meteohub,2013-01-16 14:32:00,
2013-01-16 09:37:00,37.9,36.9,29.98,NNE,22,8.0,13.0,96,0.01,,,0.50,meteohub,2013-01-16 14:37:00,
2013-01-16 09:42:00,38.1,37.0,29.98,NNE,21,8.0,13.0,96,0.01,,,0.50,meteohub,2013-01-16 14:42:00,
2013-01-16 09:47:00,38.1,37.0,29.97,NNE,16,8.0,13.0,96,0.01,,,0.50,meteohub,2013-01-16 14:47:00,
2013-01-16 09:52:00,38.1,37.0,29.96,NNE,30,7.0,13.0,96,0.01,,,0.50,meteohub,2013-01-16 14:52:00,
2013-01-16 09:57:00,38.3,37.2,29.96,NNE,31,8.0,13.0,96,0.01,,,0.50,meteohub,2013-01-16 14:57:00,
2013-01-16 10:02:00,38.5,37.4,29.96,NNE,23,9.0,13.0,96,0.01,,,0.50,meteohub,2013-01-16 15:02:00,
2013-01-16 10:07:00,38.5,37.4,29.96,NNE,31,6.0,13.0,96,0.01,,,0.50,meteohub,2013-01-16 15:07:00,
2013-01-16 10:12:00,38.7,37.6,29.96,NNE,24,6.0,13.0,96,0.01,,,0.50,meteohub,2013-01-16 15:12:00,
2013-01-16 10:17:00,38.8,37.8,29.96,NNE,22,3.0,10.0,96,0.01,,,0.50,meteohub,2013-01-16 15:17:00,
2013-01-16 10:22:00,38.8,37.8,29.94,NE,35,4.0,10.0,96,0.01,,,0.50,meteohub,2013-01-16 15:22:00,
2013-01-16 10:27:00,39.0,37.9,29.94,NNE,32,9.0,10.0,96,0.01,,,0.50,meteohub,2013-01-16 15:27:00,
2013-01-16 10:32:00,39.4,38.3,29.94,NNE,24,6.0,10.0,96,0.01,,,0.50,meteohub,2013-01-16 15:32:00,
2013-01-16 10:37:00,39.4,38.3,29.94,NNE,26,7.0,12.0,96,0.00,,,0.50,meteohub,2013-01-16 15:37:00,
2013-01-16 10:42:00,39.6,38.5,29.94,NNE,28,5.0,12.0,96,0.00,,,0.50,meteohub,2013-01-16 15:42:00,
2013-01-16 10:47:00,39.6,38.5,29.95,NNE,19,5.0,12.0,96,0.00,,,0.50,meteohub,2013-01-16 15:47:00,
2013-01-16 10:52:00,39.6,38.5,29.95,NNE,18,4.0,12.0,96,0.00,,,0.50,meteohub,2013-01-16 15:52:00,
2013-01-16 10:57:00,39.6,38.5,29.97,North,0,3.0,11.0,96,0.01,,,0.50,meteohub,2013-01-16 15:57:00,
2013-01-16 11:02:00,39.6,38.5,29.97,North,349,6.0,11.0,96,0.01,,,0.50,meteohub,2013-01-16 16:02:00,
2013-01-16 11:07:00,39.6,38.5,29.98,NNW,340,5.0,11.0,96,0.01,,,0.50,meteohub,2013-01-16 16:07:00,
2013-01-16 11:12:00,39.4,38.3,29.97,NNW,336,5.0,11.0,96,0.01,,,0.51,meteohub,2013-01-16 16:12:00,
2013-01-16 11:17:00,39.4,38.3,29.97,NNW,331,3.0,9.0,96,0.02,,,0.51,meteohub,2013-01-16 16:17:00,
2013-01-16 11:22:00,39.4,38.3,29.96,NNW,332,3.0,9.0,96,0.02,,,0.51,meteohub,2013-01-16 16:22:00,
2013-01-16 11:27:00,39.2,38.1,29.97,NW,305,6.0,9.0,96,0.02,,,0.51,meteohub,2013-01-16 16:27:00,
2013-01-16 11:32:00,39.4,38.3,29.95,NW,313,6.0,9.0,96,0.02,,,0.53,meteohub,2013-01-16 16:32:00,
2013-01-16 11:37:00,39.4,38.3,29.96,NW,313,3.0,11.0,96,0.03,,,0.53,meteohub,2013-01-16 16:37:00,
2013-01-16 11:42:00,39.4,38.3,29.94,NW,313,4.0,11.0,96,0.03,,,0.53,meteohub,2013-01-16 16:42:00,
2013-01-16 11:47:00,39.4,38.3,29.94,NW,313,3.0,11.0,96,0.03,,,0.53,meteohub,2013-01-16 16:47:00,
2013-01-16 11:52:00,39.4,38.3,29.93,NW,313,6.0,11.0,96,0.03,,,0.53,meteohub,2013-01-16 16:52:00,
2013-01-16 11:57:00,39.4,38.3,29.94,NW,313,2.0,7.0,96,0.03,,,0.53,meteohub,2013-01-16 16:57:00,
2013-01-16 12:02:00,39.6,38.5,29.93,NW,313,5.0,7.0,96,0.03,,,0.53,meteohub,2013-01-16 17:02:00,
2013-01-16 12:07:00,39.6,38.5,29.93,NW,313,4.0,7.0,96,0.03,,,0.53,meteohub,2013-01-16 17:07:00,
2013-01-16 12:12:00,39.6,38.5,29.93,NW,313,5.0,7.0,96,0.03,,,0.54,meteohub,2013-01-16 17:12:00,
2013-01-16 12:17:00,39.6,38.5,29.94,NW,313,3.0,7.0,96,0.03,,,0.54,meteohub,2013-01-16 17:17:00,
2013-01-16 12:22:00,39.6,38.5,29.93,NW,313,5.0,7.0,96,0.03,,,0.54,meteohub,2013-01-16 17:22:00,
2013-01-16 12:27:00,39.6,38.5,29.93,NW,313,5.0,7.0,96,0.03,,,0.54,meteohub,2013-01-16 17:27:00,
2013-01-16 12:32:00,39.4,38.3,29.94,NW,305,6.0,7.0,96,0.03,,,0.55,meteohub,2013-01-16 17:32:00,
2013-01-16 12:37:00,39.4,38.3,29.93,NW,304,4.0,7.0,96,0.02,,,0.55,meteohub,2013-01-16 17:37:00,
2013-01-16 12:42:00,39.0,37.9,29.94,WNW,294,5.0,12.0,96,0.02,,,0.55,meteohub,2013-01-16 17:42:00,
2013-01-16 12:47:00,39.0,37.9,29.92,WNW,300,5.0,12.0,96,0.02,,,0.55,meteohub,2013-01-16 17:47:00,
2013-01-16 12:52:00,38.8,37.8,29.92,NW,306,9.0,12.0,96,0.02,,,0.55,meteohub,2013-01-16 17:52:00,
2013-01-16 12:57:00,38.8,37.8,29.92,NW,306,5.0,12.0,96,0.02,,,0.56,meteohub,2013-01-16 17:57:00,
2013-01-16 13:02:00,38.8,37.8,29.92,NW,306,8.0,13.0,96,0.02,,,0.56,meteohub,2013-01-16 18:02:00,
2013-01-16 13:07:00,38.8,37.8,29.91,NW,308,9.0,13.0,96,0.02,,,0.56,meteohub,2013-01-16 18:07:00,
2013-01-16 13:12:00,38.8,37.8,29.91,NW,316,7.0,13.0,96,0.02,,,0.56,meteohub,2013-01-16 18:12:00,
2013-01-16 13:17:00,38.8,37.8,29.90,NW,319,9.0,13.0,96,0.02,,,0.56,meteohub,2013-01-16 18:17:00,
2013-01-16 13:22:00,38.8,37.8,29.89,NNW,329,9.0,13.0,96,0.02,,,0.56,meteohub,2013-01-16 18:22:00,
2013-01-16 13:27:00,39.0,37.9,29.88,North,355,9.0,12.0,96,0.01,,,0.56,meteohub,2013-01-16 18:27:00,
2013-01-16 13:32:00,39.2,38.1,29.88,North,0,7.0,12.0,96,0.01,,,0.56,meteohub,2013-01-16 18:32:00,
2013-01-16 13:37:00,39.2,38.1,29.88,North,0,9.0,12.0,96,0.01,,,0.56,meteohub,2013-01-16 18:37:00,
2013-01-16 13:42:00,39.4,38.3,29.88,North,0,5.0,12.0,96,0.01,,,0.56,meteohub,2013-01-16 18:42:00,
2013-01-16 13:47:00,39.4,38.3,29.86,North,0,7.0,13.0,96,0.01,,,0.56,meteohub,2013-01-16 18:47:00,
2013-01-16 13:52:00,39.4,38.3,29.84,North,0,3.0,13.0,96,0.01,,,0.56,meteohub,2013-01-16 18:52:00,
2013-01-16 13:57:00,39.6,38.5,29.84,North,0,4.0,13.0,96,0.01,,,0.56,meteohub,2013-01-16 18:57:00,
2013-01-16 14:02:00,39.7,38.7,29.83,North,0,7.0,13.0,96,0.00,,,0.56,meteohub,2013-01-16 19:02:00,
2013-01-16 14:07:00,39.7,38.7,29.81,North,9,9.0,9.0,96,0.00,,,0.56,meteohub,2013-01-16 19:07:00,
2013-01-16 14:12:00,39.9,38.8,29.80,NE,40,11.0,11.0,96,0.00,,,0.56,meteohub,2013-01-16 19:12:00,
2013-01-16 14:17:00,39.9,38.8,29.80,NE,41,10.0,10.0,96,0.00,,,0.57,meteohub,2013-01-16 19:17:00,
2013-01-16 14:22:00,40.1,39.0,29.80,NE,41,6.0,9.0,96,0.01,,,0.57,meteohub,2013-01-16 19:22:00,
2013-01-16 14:27:00,40.3,39.2,29.81,NE,41,4.0,14.0,96,0.01,,,0.57,meteohub,2013-01-16 19:27:00,
2013-01-16 14:32:00,40.5,39.4,29.80,NE,41,8.0,14.0,96,0.01,,,0.57,meteohub,2013-01-16 19:32:00,
2013-01-16 14:37:00,40.5,39.4,29.80,NE,41,3.0,14.0,96,0.01,,,0.57,meteohub,2013-01-16 19:37:00,
2013-01-16 14:42:00,40.6,39.6,29.81,NE,41,4.0,14.0,96,0.01,,,0.57,meteohub,2013-01-16 19:42:00,
2013-01-16 14:47:00,40.6,39.6,29.84,WNW,288,9.0,9.0,96,0.01,,,0.57,meteohub,2013-01-16 19:47:00,
2013-01-16 14:52:00,40.5,39.4,29.87,West,276,8.0,8.0,96,0.01,,,0.57,meteohub,2013-01-16 19:52:00,
2013-01-16 14:57:00,40.5,39.4,29.84,WNW,300,4.0,8.0,96,0.01,,,0.57,meteohub,2013-01-16 19:57:00,
2013-01-16 15:02:00,40.3,39.2,29.89,WNW,293,12.0,12.0,96,0.01,,,0.57,meteohub,2013-01-16 20:02:00,
2013-01-16 15:07:00,39.6,38.5,29.92,West,281,15.0,19.0,96,0.01,,,0.57,meteohub,2013-01-16 20:07:00,
2013-01-16 15:12:00,38.7,37.6,29.90,WNW,295,18.0,19.0,96,0.01,,,0.57,meteohub,2013-01-16 20:12:00,
2013-01-16 15:17:00,38.5,37.4,29.91,West,276,14.0,19.0,96,0.01,,,0.57,meteohub,2013-01-16 20:17:00,
2013-01-16 15:22:00,38.1,37.0,29.91,WNW,300,9.0,19.0,96,0.00,,,0.57,meteohub,2013-01-16 20:22:00,
2013-01-16 15:27:00,37.9,36.9,29.91,NW,317,13.0,23.0,96,0.00,,,0.57,meteohub,2013-01-16 20:27:00,
2013-01-16 15:32:00,37.8,36.7,29.92,West,277,10.0,23.0,96,0.00,,,0.57,meteohub,2013-01-16 20:32:00,
2013-01-16 15:37:00,37.8,36.7,29.91,WNW,298,8.0,23.0,96,0.00,,,0.57,meteohub,2013-01-16 20:37:00,
2013-01-16 15:42:00,37.6,36.5,29.90,WNW,292,5.0,23.0,96,0.00,,,0.57,meteohub,2013-01-16 20:42:00,
2013-01-16 15:47:00,37.6,36.5,29.91,NW,306,8.0,20.0,96,0.00,,,0.57,meteohub,2013-01-16 20:47:00,
2013-01-16 15:52:00,37.6,36.5,29.90,NW,313,10.0,20.0,96,0.00,,,0.57,meteohub,2013-01-16 20:52:00,
2013-01-16 15:57:00,37.4,36.3,29.90,NNW,337,12.0,20.0,96,0.00,,,0.57,meteohub,2013-01-16 20:57:00,
2013-01-16 16:02:00,37.2,36.1,29.91,WNW,297,8.0,20.0,96,0.00,,,0.57,meteohub,2013-01-16 21:02:00,
2013-01-16 16:07:00,37.2,36.1,29.90,NW,311,4.0,15.0,96,0.00,,,0.57,meteohub,2013-01-16 21:07:00,
2013-01-16 16:13:00,37.2,36.1,29.90,NW,311,3.0,15.0,96,0.00,,,0.57,meteohub,2013-01-16 21:13:00,
2013-01-16 16:18:00,37.2,36.1,29.90,NW,311,6.0,15.0,96,0.00,,,0.57,meteohub,2013-01-16 21:18:00,
2013-01-16 16:23:00,37.2,36.1,29.90,NW,311,1.0,7.0,96,0.00,,,0.57,meteohub,2013-01-16 21:23:00,
2013-01-16 16:28:00,37.2,36.1,29.92,NW,311,5.0,7.0,96,0.00,,,0.57,meteohub,2013-01-16 21:28:00,
2013-01-16 16:33:00,37.2,36.1,29.91,WNW,301,5.0,7.0,96,0.00,,,0.57,meteohub,2013-01-16 21:33:00,
2013-01-16 16:38:00,37.2,36.1,29.90,WNW,301,0.0,7.0,96,0.00,,,0.57,meteohub,2013-01-16 21:38:00,
2013-01-16 16:43:00,37.0,36.0,29.90,WNW,301,2.0,7.0,96,0.00,,,0.57,meteohub,2013-01-16 21:43:00,
2013-01-16 16:48:00,37.0,36.0,29.89,WNW,301,4.0,9.0,96,0.00,,,0.57,meteohub,2013-01-16 21:48:00,
2013-01-16 16:53:00,37.0,36.0,29.89,WNW,301,5.0,9.0,96,0.00,,,0.57,meteohub,2013-01-16 21:53:00,
2013-01-16 16:58:00,37.0,36.0,29.90,WNW,301,2.0,9.0,96,0.00,,,0.57,meteohub,2013-01-16 21:58:00,
2013-01-16 17:03:00,37.0,36.0,29.91,WNW,301,2.0,9.0,96,0.00,,,0.57,meteohub,2013-01-16 22:03:00,
2013-01-16 17:08:00,37.0,36.0,29.91,WNW,301,5.0,7.0,96,0.00,,,0.57,meteohub,2013-01-16 22:08:00,
2013-01-16 17:13:00,37.0,36.0,29.92,WNW,301,4.0,7.0,96,0.00,,,0.57,meteohub,2013-01-16 22:13:00,
2013-01-16 17:18:00,37.0,36.0,29.91,WNW,301,2.0,7.0,96,0.00,,,0.57,meteohub,2013-01-16 22:18:00,
2013-01-16 17:23:00,37.2,36.1,29.91,WNW,301,4.0,7.0,96,0.00,,,0.57,meteohub,2013-01-16 22:23:00,
2013-01-16 17:28:00,37.2,36.1,29.91,WNW,301,5.0,7.0,96,0.00,,,0.57,meteohub,2013-01-16 22:28:00,
2013-01-16 17:33:00,37.2,36.1,29.91,WNW,301,3.0,7.0,96,0.00,,,0.57,meteohub,2013-01-16 22:33:00,
2013-01-16 17:38:00,37.2,36.1,29.92,WNW,301,6.0,8.0,96,0.00,,,0.57,meteohub,2013-01-16 22:38:00,
2013-01-16 17:43:00,37.2,36.1,29.94,WNW,301,5.0,8.0,96,0.00,,,0.57,meteohub,2013-01-16 22:43:00,
2013-01-16 17:48:00,37.2,36.1,29.94,WNW,289,5.0,8.0,96,0.00,,,0.57,meteohub,2013-01-16 22:48:00,
2013-01-16 17:53:00,37.2,36.1,29.94,WNW,289,6.0,11.0,96,0.00,,,0.57,meteohub,2013-01-16 22:53:00,
2013-01-16 17:58:00,37.2,36.1,29.94,WNW,288,3.0,11.0,96,0.00,,,0.57,meteohub,2013-01-16 22:58:00,
2013-01-16 18:03:00,37.4,36.3,29.92,WNW,288,2.0,11.0,96,0.00,,,0.57,meteohub,2013-01-16 23:03:00,
2013-01-16 18:08:00,37.4,36.3,29.92,WNW,288,5.0,11.0,96,0.00,,,0.57,meteohub,2013-01-16 23:08:00,
2013-01-16 18:13:00,37.6,36.5,29.93,WNW,288,5.0,11.0,96,0.00,,,0.57,meteohub,2013-01-16 23:13:00,
2013-01-16 18:18:00,37.6,36.5,29.94,WNW,288,5.0,7.0,96,0.00,,,0.57,meteohub,2013-01-16 23:18:00,
2013-01-16 18:23:00,37.8,36.7,29.93,WNW,287,5.0,7.0,96,0.00,,,0.57,meteohub,2013-01-16 23:23:00,
2013-01-16 18:28:00,37.8,36.7,29.93,WNW,287,2.0,7.0,96,0.00,,,0.57,meteohub,2013-01-16 23:28:00,
2013-01-16 18:33:00,37.8,36.7,29.93,WNW,287,4.0,7.0,96,0.00,,,0.57,meteohub,2013-01-16 23:33:00,
2013-01-16 18:38:00,37.9,36.9,29.94,WNW,287,1.0,10.0,96,0.00,,,0.57,meteohub,2013-01-16 23:38:00,
2013-01-16 18:43:00,37.9,36.9,29.94,WNW,287,4.0,10.0,96,0.00,,,0.57,meteohub,2013-01-16 23:43:00,
2013-01-16 18:48:00,37.9,36.9,29.93,WNW,287,5.0,10.0,96,0.00,,,0.57,meteohub,2013-01-16 23:48:00,
2013-01-16 18:53:00,37.9,36.9,29.93,WNW,287,5.0,10.0,96,0.00,,,0.57,meteohub,2013-01-16 23:53:00,
2013-01-16 18:58:00,37.9,36.9,29.93,West,274,7.0,8.0,96,0.00,,,0.57,meteohub,2013-01-16 23:58:00,
2013-01-16 19:03:00,38.1,37.0,29.92,WSW,242,8.0,8.0,96,0.00,,,0.57,meteohub,2013-01-17 00:03:00,
2013-01-16 19:08:00,38.3,37.2,29.93,WSW,238,7.0,8.0,96,0.00,,,0.57,meteohub,2013-01-17 00:08:00,
2013-01-16 19:13:00,38.5,37.4,29.92,SW,229,8.0,8.0,96,0.00,,,0.57,meteohub,2013-01-17 00:13:00,
2013-01-16 19:18:00,38.5,37.4,29.92,SW,225,8.0,11.0,96,0.00,,,0.57,meteohub,2013-01-17 00:18:00,
2013-01-16 19:23:00,38.5,37.4,29.91,SW,216,8.0,11.0,96,0.00,,,0.57,meteohub,2013-01-17 00:23:00,
2013-01-16 19:28:00,38.7,37.6,29.91,SSW,207,10.0,12.0,96,0.00,,,0.57,meteohub,2013-01-17 00:28:00,
2013-01-16 19:34:00,38.7,37.6,29.93,SW,217,12.0,12.0,96,0.00,,,0.57,meteohub,2013-01-17 00:34:00,
2013-01-16 19:39:00,38.7,37.6,29.92,SW,214,8.0,12.0,96,0.00,,,0.57,meteohub,2013-01-17 00:39:00,
2013-01-16 19:44:00,38.7,37.4,29.92,SSW,210,13.0,16.0,95,0.00,,,0.57,meteohub,2013-01-17 00:44:00,
2013-01-16 19:49:00,38.8,37.6,29.92,SSW,208,13.0,16.0,95,0.00,,,0.57,meteohub,2013-01-17 00:49:00,
2013-01-16 19:54:00,38.8,37.6,29.93,SSW,210,10.0,16.0,95,0.00,,,0.57,meteohub,2013-01-17 00:54:00,
2013-01-16 19:59:00,39.0,37.8,29.91,SW,215,15.0,16.0,95,0.00,,,0.57,meteohub,2013-01-17 00:59:00,
2013-01-16 20:04:00,39.0,37.8,29.92,SW,216,14.0,17.0,95,0.00,,,0.57,meteohub,2013-01-17 01:04:00,
2013-01-16 20:09:00,39.0,37.8,29.91,SW,215,13.0,17.0,95,0.00,,,0.57,meteohub,2013-01-17 01:09:00,
2013-01-16 20:14:00,39.2,37.9,29.91,SW,221,16.0,17.0,95,0.00,,,0.57,meteohub,2013-01-17 01:14:00,
2013-01-16 20:19:00,39.4,37.8,29.91,SW,226,14.0,19.0,94,0.00,,,0.57,meteohub,2013-01-17 01:19:00,
2013-01-16 20:24:00,39.6,37.9,29.91,SW,234,7.0,19.0,94,0.00,,,0.57,meteohub,2013-01-17 01:24:00,
2013-01-16 20:29:00,39.6,37.9,29.92,SW,226,12.0,19.0,94,0.00,,,0.57,meteohub,2013-01-17 01:29:00,
2013-01-16 20:34:00,39.4,37.8,29.91,SW,221,10.0,19.0,94,0.00,,,0.57,meteohub,2013-01-17 01:34:00,
2013-01-16 20:39:00,39.6,37.9,29.93,WSW,240,7.0,16.0,94,0.00,,,0.57,meteohub,2013-01-17 01:39:00,
2013-01-16 20:44:00,39.6,37.9,29.94,WSW,243,4.0,16.0,94,0.00,,,0.57,meteohub,2013-01-17 01:44:00,
2013-01-16 20:49:00,39.6,37.9,29.93,SW,232,5.0,16.0,94,0.00,,,0.57,meteohub,2013-01-17 01:49:00,
2013-01-16 20:54:00,39.6,37.9,29.94,SW,234,10.0,14.0,94,0.00,,,0.57,meteohub,2013-01-17 01:54:00,
2013-01-16 20:59:00,39.6,37.9,29.94,WSW,240,10.0,15.0,94,0.00,,,0.57,meteohub,2013-01-17 01:59:00,
2013-01-16 21:04:00,39.7,38.1,29.94,SW,227,10.0,15.0,94,0.00,,,0.57,meteohub,2013-01-17 02:04:00,
2013-01-16 21:09:00,39.7,38.1,29.94,SW,226,9.0,15.0,94,0.00,,,0.57,meteohub,2013-01-17 02:09:00,
2013-01-16 21:14:00,39.7,38.1,29.93,WSW,246,6.0,15.0,94,0.00,,,0.57,meteohub,2013-01-17 02:14:00,
2013-01-16 21:19:00,39.7,38.1,29.94,SW,222,16.0,16.0,94,0.00,,,0.57,meteohub,2013-01-17 02:19:00,
2013-01-16 21:24:00,39.7,37.9,29.94,WSW,243,9.0,15.0,93,0.00,,,0.57,meteohub,2013-01-17 02:24:00,
2013-01-16 21:29:00,39.7,37.9,29.93,WSW,242,5.0,16.0,93,0.00,,,0.57,meteohub,2013-01-17 02:29:00,
2013-01-16 21:34:00,39.7,37.9,29.94,SW,220,13.0,16.0,93,0.00,,,0.57,meteohub,2013-01-17 02:34:00,
2013-01-16 21:39:00,39.7,37.9,29.94,SW,230,9.0,14.0,93,0.00,,,0.57,meteohub,2013-01-17 02:39:00,
2013-01-16 21:44:00,39.7,37.9,29.93,WSW,244,6.0,14.0,93,0.00,,,0.57,meteohub,2013-01-17 02:44:00,
2013-01-16 21:49:00,39.6,37.4,29.93,WSW,237,12.0,14.0,92,0.00,,,0.57,meteohub,2013-01-17 02:49:00,
2013-01-16 21:54:00,39.6,37.4,29.93,SW,234,9.0,15.0,92,0.00,,,0.57,meteohub,2013-01-17 02:54:00,
2013-01-16 21:59:00,39.6,37.4,29.92,West,261,3.0,16.0,92,0.00,,,0.57,meteohub,2013-01-17 02:59:00,
2013-01-16 22:04:00,39.6,37.4,29.93,SW,226,10.0,16.0,92,0.00,,,0.57,meteohub,2013-01-17 03:04:00,
2013-01-16 22:09:00,39.6,37.4,29.94,SW,221,7.0,16.0,92,0.00,,,0.57,meteohub,2013-01-17 03:09:00,
2013-01-16 22:14:00,39.6,37.4,29.93,SW,232,7.0,16.0,92,0.00,,,0.57,meteohub,2013-01-17 03:14:00,
2013-01-16 22:19:00,39.6,37.4,29.93,WSW,240,10.0,16.0,92,0.00,,,0.57,meteohub,2013-01-17 03:19:00,
2013-01-16 22:24:00,39.6,37.4,29.93,SW,224,6.0,16.0,92,0.00,,,0.57,meteohub,2013-01-17 03:24:00,
2013-01-16 22:30:00,39.6,37.4,29.93,SW,234,9.0,14.0,92,0.00,,,0.57,meteohub,2013-01-17 03:30:00,
2013-01-16 22:35:00,39.6,37.4,29.92,SW,225,9.0,14.0,92,0.00,,,0.57,meteohub,2013-01-17 03:35:00,
2013-01-16 22:40:00,39.6,37.4,29.91,SW,225,8.0,13.0,92,0.00,,,0.57,meteohub,2013-01-17 03:40:00,
2013-01-16 22:45:00,39.6,37.2,29.91,SW,233,7.0,13.0,91,0.00,,,0.57,meteohub,2013-01-17 03:45:00,
2013-01-16 22:50:00,39.6,37.2,29.92,SW,229,9.0,13.0,91,0.00,,,0.57,meteohub,2013-01-17 03:50:00,
2013-01-16 22:55:00,39.6,37.2,29.92,SW,219,11.0,13.0,91,0.00,,,0.57,meteohub,2013-01-17 03:55:00,
2013-01-16 23:00:00,39.6,37.2,29.93,SW,236,7.0,14.0,91,0.00,,,0.57,meteohub,2013-01-17 04:00:00,
2013-01-16 23:05:00,39.6,37.2,29.93,SW,225,10.0,14.0,91,0.00,,,0.57,meteohub,2013-01-17 04:05:00,
2013-01-16 23:10:00,39.7,37.4,29.94,SW,225,6.0,14.0,91,0.00,,,0.57,meteohub,2013-01-17 04:10:00,
2013-01-16 23:15:00,39.6,37.2,29.94,SW,219,11.0,15.0,91,0.00,,,0.57,meteohub,2013-01-17 04:15:00,
2013-01-16 23:20:00,39.6,37.2,29.93,SW,221,10.0,15.0,91,0.00,,,0.57,meteohub,2013-01-17 04:20:00,
2013-01-16 23:25:00,39.6,37.2,29.93,SW,217,14.0,15.0,91,0.00,,,0.57,meteohub,2013-01-17 04:25:00,
2013-01-16 23:30:00,39.7,37.4,29.93,SW,214,11.0,15.0,91,0.00,,,0.57,meteohub,2013-01-17 04:30:00,
2013-01-16 23:35:00,39.6,37.2,29.93,SW,219,8.0,15.0,91,0.00,,,0.57,meteohub,2013-01-17 04:35:00,
2013-01-16 23:40:00,39.7,37.4,29.93,SSW,204,12.0,17.0,91,0.00,,,0.57,meteohub,2013-01-17 04:40:00,
2013-01-16 23:45:00,39.7,37.4,29.93,SW,226,10.0,17.0,91,0.00,,,0.57,meteohub,2013-01-17 04:45:00,
2013-01-16 23:50:00,39.7,37.0,29.94,WSW,240,12.0,17.0,90,0.00,,,0.57,meteohub,2013-01-17 04:50:00,
2013-01-16 23:55:00,39.7,37.4,29.94,SW,231,11.0,19.0,91,0.00,,,0.57,meteohub,2013-01-17 04:55:00,